Content
SEND FEEDBACK

Daily
Averages
Monthly
Summary
United States of America

SALAMONIA, INDIANA


Home > North America > United States > Indiana
Elevation: 980 feet     Latitude: 40 23N     Longitude: 084 52W

WEATHER
 
SELECT A DAY
Number of Records: 114,655;   Date Range: 3/8/10 - 11/21/14
 
SHARE

PRINT THIS DATA

[ ← Previous Day ]
WEATHER ALMANAC - JANUARY 23, 2013
[ Next Day → ]
[ °C ]   °F
Weather ElementAverageHighLow
Temperature15.5 °F19.4 °F (12:15 pm)8.6 °F (4:15 am)
Dewpoint6.2 °F15.8 °F (11:15 pm)1.4 °F (12:35 am)
Humidity67.8 %86 % (6:35 pm)46 % (12:15 pm)
Barometer30.19 in30.30 in (2:15 am)30.06 in (9:15 pm)
Wind Speed7.9 mph18.4 mph (11:55 pm)
Wind Gust26.5 mph (11:55 pm)
Weather ElementAverage
Visibility9.1 mi
Wind DirectionWSW (252.4 °)

Weather ElementTotal
Precipitation---
Heating Degree Days51 (Base 65)
Averaged from 70 records on January 23, 2013
WEATHER CONDITIONS BREAKOUT
WIND DIRECTION BREAKOUT
WEATHER BY HOUR - JANUARY 23, 2013
[ °C ]   °F
Local TimeTemperatureDewpointHumidityBarometerVisibilityWind DirectionWind SpeedGust SpeedPrecipitationEventsConditions
12:35 AM10.4 °F1.4 °F67 %30.29 in10.0 miWNW (300°)6.9 mphClear
12:55 AM10.4 °F1.4 °F67 %30.29 in10.0 miWNW (290°)5.8 mphClear
1:15 AM10.4 °F1.4 °F67 %30.29 in10.0 miWNW (290°)5.8 mphScattered Clouds
1:35 AM10.4 °F1.4 °F67 %30.29 in10.0 miWNW (290°)5.8 mphScattered Clouds
1:55 AM10.4 °F1.4 °F67 %30.29 in10.0 miWNW (300°)5.8 mphMostly Cloudy
2:15 AM10.4 °F1.4 °F67 %30.30 in10.0 miWNW (290°)4.6 mphOvercast
2:35 AM10.4 °F1.4 °F67 %30.30 in10.0 miWNW (290°)8.1 mphOvercast
2:55 AM10.4 °F1.4 °F67 %30.30 in10.0 miWest (280°)8.1 mphOvercast
3:15 AM10.4 °F1.4 °F67 %30.30 in10.0 miWest (280°)4.6 mphMostly Cloudy
3:35 AM10.4 °F1.4 °F67 %30.29 in10.0 miWest (270°)4.6 mphMostly Cloudy
3:55 AM10.4 °F1.4 °F67 %30.29 in10.0 miWest (270°)3.5 mphScattered Clouds
4:15 AM8.6 °F1.4 °F73 %30.28 in10.0 miWest (260°)4.6 mphClear
4:35 AM10.4 °F1.4 °F67 %30.28 in10.0 miWest (270°)5.8 mphClear
4:55 AM10.4 °F1.4 °F67 %30.28 in10.0 miWest (270°)5.8 mphClear
5:15 AM10.4 °F3.2 °F73 %30.28 in10.0 miWest (270°)6.9 mphMostly Cloudy
5:35 AM10.4 °F3.2 °F73 %30.27 in10.0 miWest (270°)9.2 mphOvercast
5:55 AM12.2 °F1.4 °F62 %30.27 in10.0 miWest (280°)9.2 mphOvercast
6:15 AM12.2 °F3.2 °F67 %30.28 in10.0 miWest (270°)9.2 mphOvercast
6:35 AM12.2 °F3.2 °F67 %30.28 in10.0 miWest (270°)9.2 mphOvercast
6:55 AM12.2 °F1.4 °F62 %30.28 in10.0 miWest (280°)8.1 mphOvercast
7:15 AM12.2 °F3.2 °F67 %30.28 in10.0 miWest (280°)9.2 mphOvercast
7:35 AM12.2 °F3.2 °F67 %30.28 in10.0 miWest (270°)6.9 mphOvercast
7:55 AM12.2 °F3.2 °F67 %30.27 in10.0 miWest (280°)8.1 mphOvercast
8:15 AM12.2 °F3.2 °F67 %30.27 in10.0 miWest (260°)6.9 mphOvercast
8:35 AM12.2 °F3.2 °F67 %30.27 in10.0 miWSW (250°)9.2 mphOvercast
8:55 AM14.0 °F3.2 °F62 %30.28 in10.0 miWest (270°)6.9 mphOvercast
9:15 AM14.0 °F3.2 °F62 %30.28 in10.0 miWSW (240°)8.1 mphOvercast
9:35 AM14.0 °F3.2 °F62 %30.28 in10.0 miWSW (240°)9.2 mphOvercast
10:15 AM14.0 °F3.2 °F62 %30.25 in10.0 miWSW (240°)9.2 mphOvercast
10:35 AM15.8 °F3.2 °F58 %30.26 in10.0 miSW (230°)11.5 mphOvercast
10:55 AM17.6 °F3.2 °F53 %30.26 in10.0 miWest (260°)11.5 mphOvercast
11:15 AM17.6 °F3.2 °F53 %30.26 in10.0 miSW (230°)9.2 mphOvercast
11:35 AM17.6 °F3.2 °F53 %30.24 in10.0 miSW (220°)11.5 mphOvercast
11:55 AM17.6 °F1.4 °F49 %30.23 in10.0 miWSW (240°)9.2 mphOvercast
12:15 PM19.4 °F1.4 °F46 %30.22 in10.0 miWSW (250°)10.4 mph16.1 mphOvercast
12:35 PM19.4 °F1.4 °F46 %30.21 in10.0 miWSW (240°)12.7 mph16.1 mphOvercast
12:55 PM19.4 °F1.4 °F46 %30.19 in10.0 miWSW (250°)11.5 mphOvercast
1:15 PM19.4 °F1.4 °F46 %30.18 in10.0 miWest (260°)12.7 mph17.3 mphOvercast
1:35 PM19.4 °F1.4 °F46 %30.17 in10.0 miWSW (250°)12.7 mphOvercast
1:55 PM19.4 °F3.2 °F49 %30.16 in10.0 miWSW (250°)11.5 mphOvercast
2:15 PM19.4 °F3.2 °F49 %30.15 in10.0 miWSW (250°)11.5 mphOvercast
2:35 PM19.4 °F3.2 °F49 %30.14 in10.0 miWSW (250°)10.4 mphOvercast
2:55 PM19.4 °F5.0 °F54 %30.15 in10.0 miWSW (240°)10.4 mphOvercast
3:15 PM19.4 °F6.8 °F58 %30.14 in10.0 miWSW (250°)11.5 mphOvercast
3:35 PM19.4 °F5.0 °F54 %30.14 in10.0 miWest (260°)10.4 mphOvercast
3:55 PM19.4 °F6.8 °F58 %30.13 in10.0 miSW (230°)9.2 mphSnowLight Snow
4:15 PM19.4 °F8.6 °F63 %30.13 in10.0 miWSW (250°)9.2 mphSnowLight Snow
4:35 PM19.4 °F8.6 °F63 %30.12 in10.0 miWSW (240°)9.2 mphSnowLight Snow
4:55 PM19.4 °F10.4 °F68 %30.11 in10.0 miWSW (240°)10.4 mphSnowLight Snow
5:15 PM19.4 °F10.4 °F68 %30.11 in7.0 miSW (230°)8.1 mphSnowLight Snow
5:35 PM17.6 °F12.2 °F79 %30.11 in7.0 miSW (230°)8.1 mphSnowLight Snow
5:55 PM17.6 °F12.2 °F79 %30.11 in5.0 miSW (230°)6.9 mphSnowLight Snow
6:15 PM17.6 °F12.2 °F79 %30.11 in7.0 miWSW (240°)6.9 mphSnowLight Snow
6:35 PM17.6 °F14.0 °F86 %30.11 in5.0 miWSW (240°)5.8 mphSnowLight Snow
6:55 PM17.6 °F14.0 °F86 %30.10 in5.0 miWest (260°)5.8 mphSnowLight Snow
7:15 PM17.6 °F14.0 °F86 %30.11 in7.0 miCalmSnowLight Snow
7:35 PM17.6 °F14.0 °F86 %30.10 in5.0 miWSW (250°)3.5 mphSnowLight Snow
7:55 PM17.6 °F14.0 °F86 %30.09 in5.0 miWSW (240°)3.5 mphSnowLight Snow
8:15 PM17.6 °F14.0 °F86 %30.07 in7.0 miSW (220°)5.8 mphSnowLight Snow
8:35 PM17.6 °F14.0 °F86 %30.07 in10.0 miSSW (210°)4.6 mphOvercast
8:55 PM17.6 °F14.0 °F86 %30.07 in10.0 miSW (220°)5.8 mphOvercast
9:15 PM17.6 °F14.0 °F86 %30.06 in10.0 miSSW (210°)5.8 mphSnowLight Snow
9:35 PM17.6 °F14.0 °F86 %30.07 in10.0 miSW (230°)4.6 mphSnowLight Snow
9:55 PM17.6 °F14.0 °F86 %30.07 in7.0 miSW (220°)5.8 mphSnowLight Snow
10:15 PM17.6 °F14.0 °F86 %30.07 in10.0 miWSW (240°)4.6 mphOvercast
10:35 PM19.4 °F14.0 °F80 %30.06 in10.0 miWSW (250°)3.5 mphOvercast
10:55 PM19.4 °F14.0 °F80 %30.06 in10.0 miWest (270°)4.6 mphOvercast
11:15 PM19.4 °F15.8 °F86 %30.07 in4.0 miWest (280°)6.9 mphSnowLight Snow
11:35 PM19.4 °F15.8 °F86 %30.07 in3.0 miWNW (290°)10.4 mph19.6 mphSnowLight Snow
11:55 PM19.4 °F15.8 °F86 %30.08 in5.0 miWNW (300°)18.4 mph26.5 mphSnowLight Snow
Hourly data recorded from KVES, located miles away from Salamonia, Indiana







STORIES FROM OUR PARTNERS